This is the latest recevied weather packets stored in our database for station/object KC4JES. If no packets are shown the sender has not sent any weather packets the latest 10 day(s).
| Time | Temp. | Humidity | Pressure | Rain* | Wind** | Luminosity | Snow |
|---|---|---|---|---|---|---|---|
| 1777561974 | 26.67° C | 74% | 1011.8 hPa | 0 mm | - | 155 W/m² | - |
| 1777561671 | 27.22° C | 74% | 1011.8 hPa | 0 mm | - | 139 W/m² | - |
| 1777561366 | 26.67° C | 75% | 1011.9 hPa | 0 mm | - | 113 W/m² | - |
| 1777561062 | 26.67° C | 77% | 1011.6 hPa | 0 mm | - | 114 W/m² | - |
| 1777560757 | 26.11° C | 78% | 1012.1 hPa | 0 mm | - | 172 W/m² | - |
| 1777560455 | 26.11° C | 78% | 1012.2 hPa | 0 mm | - | 143 W/m² | - |
| 1777560152 | 25.56° C | 78% | 1012.1 hPa | 0 mm | - | 187 W/m² | - |
| 1777559849 | 26.11° C | 78% | 1012.1 hPa | 0 mm | - | 173 W/m² | - |
| 1777559545 | 26.11° C | 77% | 1011.9 hPa | 0 mm | - | 187 W/m² | - |
| 1777559242 | 25.56° C | 80% | 1011.6 hPa | 0 mm | - | 190 W/m² | - |
| 1777558937 | 25.56° C | 80% | 1011.4 hPa | 0 mm | - | 176 W/m² | - |
| 1777558634 | 25.56° C | 80% | 1011.6 hPa | 0 mm | - | 136 W/m² | - |
| 1777558329 | 25.56° C | 80% | 1011.7 hPa | 0 mm | - | 176 W/m² | - |
| 1777558026 | 25.56° C | 80% | 1011.8 hPa | 0 mm | - | 151 W/m² | - |
| 1777557722 | 25.56° C | 80% | 1011.6 hPa | 0 mm | - | 142 W/m² | - |
| 1777557419 | 25.56° C | 81% | 1011.6 hPa | 0 mm | - | 128 W/m² | - |
| 1777557115 | 25.56° C | 81% | 1011.8 hPa | 0 mm | - | 159 W/m² | - |
| 1777556811 | 25° C | 82% | 1011.4 hPa | 0 mm | - | 176 W/m² | - |
| 1777556508 | 25° C | 82% | 1011.3 hPa | 0 mm | - | 124 W/m² | - |
| 1777556207 | 25° C | 83% | 1011.5 hPa | 0 mm | - | 101 W/m² | - |
| 1777555903 | 24.44° C | 84% | 1011.9 hPa | 0 mm | - | 98 W/m² | - |
| 1777555599 | 24.44° C | 84% | 1011.9 hPa | 0 mm | - | 118 W/m² | - |
| 1777555296 | 24.44° C | 84% | 1011.9 hPa | 0 mm | - | 95 W/m² | - |
| 1777554992 | 24.44° C | 84% | 1011.5 hPa | 0 mm | - | 102 W/m² | - |
| 1777554690 | 23.89° C | 84% | 1012 hPa | 0 mm | - | 105 W/m² | - |
* Rain latest hour (hover to see other rain measurements)
** Current wind speed in m/s (hover to see current wind gust speed)